[[{"header":{"parameterUnit":"m.s-1","parameterCategory":1,"la1":30.2991,"la2":30.254,"lo1":-89.0895,"lo2":-89.0444,"dy":0.0017,"dx":0.0017,"nx":28,"ny":28,"refTime":"2024-10-04T09:00:00:Z","depth":0,"parameterNumber":2,"parameterNumberName":"U-component_of_WINDS"},"data":[0,0,0,0,0,0,0,0,0,0,0,0,0,0,0,0,0,0,0,0,0,0,0,0,0,0,0,0,0,0,0,0,0,0,0,0,0,0,0,0,0,0,0,0,0,0,0,0,0,0,0,0,0,0,0,0,0,0,-4.428,-4.4281,0,-4.437,-4.4371,-4.4372,-4.4264,-4.426,-4.4256,-4.4252,-4.4347,-4.4353,-4.4359,0,0,0,0,0,0,0,0,0,0,0,0,0,-4.4017,-4.4023,-4.428,-4.4281,-4.4282,-4.437,-4.4371,-4.4372,-4.4265,-4.426,-4.4255,-4.425,-4.4345,-4.4352,-4.4359,0,0,0,0,0,0,0,0,0,0,0,0,0,-4.4122,-4.4025,-4.428,-4.4239,-4.4236,-4.4369,-4.4371,-4.4372,-4.4266,-4.426,-4.4254,-4.4248,-4.4342,-4.4351,-4.436,-4.4539,0,0,-4.4389,-4.4393,0,0,0,0,0,0,0,0,-4.4116,-4.4132,-4.4244,-4.4242,-4.4239,-4.4299,-4.4313,-4.4428,-4.4267,-4.4255,-4.4252,-4.4245,-4.4336,-4.4345,-4.4376,-4.4543,-4.4547,-4.439,-4.4396,-4.44,-4.4402,0,0,0,0,0,0,0,-4.4109,-4.4127,-4.4315,-4.4246,-4.4243,-4.4217,-4.4225,-4.4334,-4.4328,-4.4255,-4.4248,-4.426,-4.4333,-4.4367,-4.4377,-4.4548,-4.439,-4.4398,-4.4404,-4.4407,-4.4869,-4.4875,0,0,0,0,0,0,-4.4106,-4.4122,-4.4313,-4.4318,-4.4162,-4.4227,-4.4236,-4.4286,-4.4326,-4.4327,-4.4265,-4.4254,-4.4354,-4.4366,-4.438,-4.4593,-4.44,-4.4408,-4.4414,-4.4862,-4.487,-4.4877,0,0,0,0,0,0,-4.4101,-4.4124,-4.4309,-4.4218,-4.424,-4.4238,-4.4295,-4.4291,-4.4324,-4.4334,-4.4332,-4.43,-4.4349,-4.4367,-4.45,-4.4595,-4.4413,-4.4421,-4.4854,-4.4865,-4.4874,-4.5019,0,0,0,0,0,0,-4.4094,-4.4123,-4.419,-4.422,-4.4245,-4.4428,-4.4301,-4.4297,-4.4341,-4.4328,-4.4366,-4.4367,-4.4346,-4.4487,-4.451,-4.4604,-4.4428,-4.4846,-4.4859,-4.4871,-4.5006,-4.5033,-4.5056,0,0,0,0,0,-4.4085,-4.4227,-4.4194,-4.4218,-4.4329,-4.4433,-4.4447,-4.442,-4.4348,-4.4417,-4.4423,-4.4365,-4.458,-4.4501,-4.4526,-4.4625,-4.484,-4.4855,-4.487,-4.4995,-4.5028,-4.5055,0,0,0,0,0,0,-4.4209,-4.4231,-4.4194,-4.435,-4.4391,-4.4415,-4.4499,-4.4455,-4.4517,-4.4503,-4.4467,-4.4477,-4.4619,-4.4635,-4.4547,-4.48,-4.4698,-4.4719,-4.4785,-4.4816,-4.4841,-4.4835,-4.4436,0,0,0,0,0,-4.4254,-4.4336,-4.4351,-4.4488,-4.451,-4.4502,-4.4546,-4.4522,-4.4562,-4.4579,-4.4595,-4.4637,-4.4714,-4.4766,-4.4837,-4.5007,-4.5015,-4.5088,-4.5113,-4.5133,-4.5152,-4.5245,-4.5278,-4.4926,-4.4926,-4.4926,0,0,-4.4349,-4.4371,-4.4425,-4.4514,-4.4542,-4.4629,-4.4517,-4.4613,-4.4678,-4.4594,-4.4721,-4.4735,-4.478,-4.4933,-4.5001,-4.4951,-4.5251,-4.5152,-4.5168,-4.5176,-4.5264,-4.5297,-4.5327,-4.4937,-4.4935,-4.4933,0,0,-4.4567,-4.4591,-4.4708,-4.4739,-4.4784,-4.4777,-4.4806,-4.4837,-4.4843,-4.497,-4.4909,-4.4986,-4.5119,-4.5154,-4.5189,-4.5422,-4.5372,-4.5446,-4.5577,-4.5668,-4.5696,-4.572,-4.5806,-4.5836,-4.5464,-4.5465,-4.5465,0,-4.4679,-4.4808,-4.4775,-4.4876,-4.4918,-4.4845,-4.4964,-4.4996,-4.5062,-4.5093,-4.5034,-4.5201,-4.5226,-4.5388,-4.5445,-4.5475,-4.5508,-4.5442,-4.5695,-4.5719,-4.5741,-4.5822,-4.5854,-4.5473,-4.5472,-4.5471,-4.5471,0,-4.4945,-4.5035,-4.5125,-4.519,-4.5241,-4.5352,-4.5336,-4.5392,-4.5364,-4.5364,-4.5495,-4.5523,-4.5599,-4.5635,-4.5608,-4.5794,-4.5761,-4.57,-4.5597,-4.5784,-4.5859,-4.589,-4.5486,-4.5483,-4.548,-4.5478,0,0,-4.5244,-4.529,-4.5324,-4.5353,-4.5397,-4.5467,-4.5574,-4.5648,-4.5698,-4.5746,-4.5837,-4.5951,-4.5895,-4.5935,-4.5911,-4.5992,-4.6177,-4.592,-4.5921,-4.5969,-4.6386,-4.6433,-4.647,-4.6143,-4.6149,-4.6154,-4.6383,0,-4.5464,-4.5649,-4.5623,-4.5802,-4.5886,-4.5819,-4.5912,-4.595,-4.5954,-4.6026,-4.6029,-4.6112,-4.603,-4.6055,-4.6131,-4.6138,-4.626,-4.6121,-4.6229,-4.6234,-4.6222,-4.6508,-4.6559,-4.6773,-4.6412,-4.6417,-4.642,0,-4.5745,-4.5803,-4.5991,-4.6024,-4.6058,-4.6143,-4.621,-4.6279,-4.6321,-4.6318,-4.6364,-4.6326,-4.6435,-4.6329,-4.648,-4.6386,-4.6429,-4.6439,-4.6447,-4.6457,-4.634,-4.6529,-4.6841,-4.6874,-4.6466,-4.6462,-4.6459,0,-4.5947,-4.6072,-4.6201,-4.6228,-4.6269,-4.633,-4.635,-4.6386,-4.6433,-4.6492,-4.6522,-4.6593,-4.6633,-4.6689,-4.6672,-4.6596,-4.6828,-4.672,-4.683,-4.6831,-4.6883,-4.688,-4.7209,-4.6908,-4.6907,-4.6907,-4.6906,0,-4.6196,-4.6314,-4.6293,-4.6372,-4.6503,-4.6472,-4.6602,-4.6614,-4.6647,-4.6729,-4.6674,-4.6752,-4.6724,-4.6801,-4.6788,-4.6916,-4.6934,-4.6936,-4.6932,-4.6942,-4.6942,-4.6971,-4.6956,-4.6915,-4.6913,-4.6911,-4.691,0,-4.6444,-4.6434,-4.6571,-4.6598,-4.6608,-4.6703,-4.6727,-4.6802,-4.6801,-4.6905,-4.6928,-4.6927,-4.7015,-4.7003,-4.7101,-4.7092,-4.7253,-4.7229,-4.7239,-4.7234,-4.7346,-4.7336,-4.7705,-4.7753,-4.742,-4.7423,-4.7425,0,-4.6605,-4.6694,-4.6731,-4.6782,-4.6806,-4.6888,-4.6936,-4.6909,-4.6961,-4.7017,-4.7087,-4.7169,-4.7234,-4.7378,-4.7386,-4.7461,-4.7441,-4.7565,-4.7452,-4.746,-4.7445,-4.7441,-4.7451,-4.7588,-4.7592,-4.7595,-4.7597,0,-4.6892,-4.6883,-4.6953,-4.7023,-4.7082,-4.7135,-4.7184,-4.7228,-4.7206,-4.7268,-4.7357,-4.7407,-4.7507,-4.7591,-4.7662,-4.7683,-4.7639,-4.7632,-4.7662,-4.7675,-4.7678,-4.768,-4.7302,-4.7625,-4.7622,-4.762,-4.7618,-4.7617,-4.7102,-4.7179,-4.7218,-4.7299,-4.7332,-4.7379,-4.7452,-4.746,-4.7534,-4.7613,-4.7592,-4.7694,-4.7735,-4.7825,-4.7855,-4.7934,-4.7889,-4.7932,-4.7943,-4.7954,-4.7969,-4.7664,-4.7947,-4.7946,-4.7945,-4.7945,-4.7944,0,-4.7388,-4.741,-4.7484,-4.7554,-4.7618,-4.7569,-4.762,-4.7677,-4.7767,-4.7809,-4.7874,-4.7978,-4.8059,-4.8074,-4.8152,-4.8213,-4.8194,-4.8234,-4.8231,-4.8237,-4.8004,-4.7971,-4.8248,-4.8248,-4.8248,-4.8248,-4.8248,-4.8248,-4.7545,-4.7673,-4.7669,-4.7814,-4.7834,-4.7933,-4.7967,-4.801,-4.8044,-4.8161,-4.8228,-4.8237,-4.827,-4.8349,-4.8422,-4.8425,-4.8457,-4.8506,-4.8501,-4.8283,-4.8253,-4.8224,-4.8193,-4.8513,-4.8513,-4.8727,-4.8729,-4.8731]},{"header":{"parameterUnit":"m.s-1","parameterCategory":1,"la1":30.2991,"la2":30.254,"lo1":-89.0895,"lo2":-89.0444,"dy":0.0017,"dx":0.0017,"nx":28,"ny":28,"refTime":"2024-10-04T09:00:00:Z","depth":0,"parameterNumber":3,"parameterNumberName":"V-component_of_WINDS"},"data":[0,0,0,0,0,0,0,0,0,0,0,0,0,0,0,0,0,0,0,0,0,0,0,0,0,0,0,0,0,0,0,0,0,0,0,0,0,0,0,0,0,0,0,0,0,0,0,0,0,0,0,0,0,0,0,0,0,0,-3.1468,-3.1468,0,-3.1449,-3.1449,-3.1449,-3.1391,-3.139,-3.1389,-3.1387,-3.1367,-3.1368,-3.1369,0,0,0,0,0,0,0,0,0,0,0,0,0,-3.1454,-3.1455,-3.1468,-3.1468,-3.1468,-3.1449,-3.1449,-3.1448,-3.1391,-3.139,-3.1388,-3.1387,-3.1367,-3.1368,-3.1369,0,0,0,0,0,0,0,0,0,0,0,0,0,-3.145,-3.1455,-3.1468,-3.1437,-3.1434,-3.1449,-3.1449,-3.1448,-3.1392,-3.139,-3.1388,-3.1386,-3.1367,-3.1368,-3.1369,-3.1412,0,0,-3.1372,-3.1372,0,0,0,0,0,0,0,0,-3.145,-3.1451,-3.1442,-3.1439,-3.1436,-3.1421,-3.1436,-3.1436,-3.1392,-3.1408,-3.1387,-3.1385,-3.1387,-3.1386,-3.1386,-3.1412,-3.1411,-3.1372,-3.1372,-3.1373,-3.1373,0,0,0,0,0,0,0,-3.1451,-3.1451,-3.1461,-3.1442,-3.1438,-3.1423,-3.1421,-3.1436,-3.1408,-3.1406,-3.1402,-3.1401,-3.1385,-3.1386,-3.1385,-3.141,-3.1372,-3.1373,-3.1373,-3.1374,-3.1468,-3.147,0,0,0,0,0,0,-3.1456,-3.1452,-3.1461,-3.146,-3.1439,-3.1425,-3.1422,-3.1427,-3.1408,-3.1403,-3.1402,-3.1398,-3.1385,-3.1384,-3.1385,-3.1433,-3.1373,-3.1374,-3.1374,-3.1466,-3.1468,-3.147,0,0,0,0,0,0,-3.1456,-3.1457,-3.1462,-3.1455,-3.1454,-3.1427,-3.1434,-3.1428,-3.1429,-3.1405,-3.1399,-3.1408,-3.1383,-3.1383,-3.1405,-3.1431,-3.1374,-3.1375,-3.1464,-3.1467,-3.1469,-3.153,0,0,0,0,0,0,-3.1455,-3.1457,-3.1474,-3.1456,-3.1455,-3.1484,-3.1435,-3.1429,-3.1431,-3.1425,-3.1409,-3.1405,-3.1382,-3.1404,-3.1406,-3.1431,-3.1376,-3.1461,-3.1465,-3.1468,-3.1526,-3.1535,-3.1543,0,0,0,0,0,-3.1455,-3.1493,-3.1475,-3.1477,-3.1475,-3.1486,-3.1485,-3.1458,-3.1433,-3.1449,-3.1433,-3.1405,-3.1428,-3.1407,-3.1409,-3.1435,-3.1459,-3.1464,-3.1468,-3.1522,-3.1533,-3.1543,0,0,0,0,0,0,-3.1515,-3.149,-3.147,-3.1503,-3.1497,-3.1476,-3.1496,-3.1471,-3.1472,-3.1467,-3.1433,-3.143,-3.1457,-3.1448,-3.1425,-3.1475,-3.1439,-3.1444,-3.148,-3.149,-3.1498,-3.1499,-3.1377,0,0,0,0,0,-3.1533,-3.1543,-3.152,-3.1551,-3.1549,-3.1523,-3.1527,-3.1506,-3.1499,-3.1496,-3.1481,-3.1475,-3.148,-3.1485,-3.1489,-3.1524,-3.1519,-3.1543,-3.1551,-3.1558,-3.1563,-3.1579,-3.1589,-3.1485,-3.1485,-3.1484,0,0,-3.1568,-3.1555,-3.1564,-3.1563,-3.1556,-3.1567,-3.1521,-3.1536,-3.1543,-3.1498,-3.1517,-3.1507,-3.1497,-3.1526,-3.1538,-3.1519,-3.1591,-3.1564,-3.157,-3.157,-3.1585,-3.1595,-3.1603,-3.1488,-3.1487,-3.1487,0,0,-3.1638,-3.163,-3.1654,-3.1648,-3.1637,-3.1619,-3.1625,-3.1608,-3.1598,-3.1618,-3.1583,-3.1592,-3.1602,-3.1596,-3.1595,-3.166,-3.1634,-3.1663,-3.1706,-3.1723,-3.1731,-3.1738,-3.176,-3.1769,-3.1667,-3.1667,-3.1667,0,-3.1684,-3.1699,-3.167,-3.1685,-3.1685,-3.1644,-3.1668,-3.1663,-3.1654,-3.1655,-3.1634,-3.1645,-3.1636,-3.1662,-3.1678,-3.1678,-3.1683,-3.1664,-3.1732,-3.1739,-3.1745,-3.1766,-3.1774,-3.1671,-3.167,-3.167,-3.167,0,-3.1755,-3.1766,-3.1787,-3.1779,-3.1781,-3.18,-3.1773,-3.1779,-3.1758,-3.1742,-3.1761,-3.1748,-3.1748,-3.1752,-3.1733,-3.1775,-3.1764,-3.1738,-3.1702,-3.1759,-3.1778,-3.1786,-3.1676,-3.1674,-3.1673,-3.1673,0,0,-3.1863,-3.1837,-3.1845,-3.184,-3.1825,-3.1833,-3.185,-3.1849,-3.1854,-3.1849,-3.1861,-3.1871,-3.1846,-3.1844,-3.1823,-3.1838,-3.1889,-3.181,-3.181,-3.1824,-3.1933,-3.1951,-3.1961,-3.1871,-3.1873,-3.1874,-3.1933,0,-3.1928,-3.1956,-3.1929,-3.1962,-3.1971,-3.1931,-3.1946,-3.1938,-3.1923,-3.1928,-3.1911,-3.1918,-3.1886,-3.1884,-3.1897,-3.188,-3.191,-3.1876,-3.1882,-3.1882,-3.1884,-3.1971,-3.1991,-3.2048,-3.194,-3.1942,-3.1943,0,-3.2008,-3.2006,-3.204,-3.202,-3.2023,-3.2037,-3.2033,-3.2039,-3.2028,-3.2016,-3.2013,-3.1987,-3.2001,-3.1966,-3.1984,-3.1961,-3.1962,-3.1954,-3.1955,-3.1954,-3.1915,-3.1971,-3.2065,-3.2073,-3.1954,-3.1953,-3.1952,0,-3.2082,-3.2088,-3.2108,-3.2105,-3.2083,-3.2093,-3.2085,-3.2072,-3.2073,-3.2069,-3.2069,-3.2068,-3.2067,-3.2066,-3.204,-3.2017,-3.2061,-3.2024,-3.205,-3.2051,-3.2061,-3.2061,-3.2156,-3.2064,-3.2064,-3.2063,-3.2063,0,-3.2157,-3.2179,-3.214,-3.2153,-3.2175,-3.2144,-3.2167,-3.2154,-3.2143,-3.2151,-3.2117,-3.2126,-3.2092,-3.2096,-3.2076,-3.2093,-3.2094,-3.2083,-3.2078,-3.2086,-3.2087,-3.2086,-3.208,-3.2066,-3.2065,-3.2065,-3.2064,0,-3.2243,-3.2218,-3.2238,-3.2215,-3.221,-3.2227,-3.2208,-3.2218,-3.22,-3.2211,-3.2212,-3.2185,-3.2188,-3.2162,-3.2161,-3.2147,-3.2174,-3.2162,-3.2177,-3.2173,-3.2201,-3.2198,-3.2297,-3.2308,-3.221,-3.2211,-3.2212,0,-3.2292,-3.2308,-3.2286,-3.2289,-3.2282,-3.2288,-3.2288,-3.2257,-3.2259,-3.2247,-3.2258,-3.2259,-3.2257,-3.2265,-3.2244,-3.2243,-3.223,-3.2264,-3.2229,-3.2237,-3.2229,-3.2228,-3.2228,-3.2272,-3.2273,-3.2274,-3.2275,0,-3.2381,-3.2368,-3.2369,-3.2366,-3.2367,-3.2363,-3.2357,-3.2362,-3.2328,-3.2331,-3.2334,-3.2333,-3.2331,-3.2332,-3.2326,-3.2317,-3.229,-3.2286,-3.2292,-3.23,-3.2308,-3.2303,-3.2196,-3.2284,-3.2283,-3.2282,-3.2282,-3.2281,-3.2449,-3.246,-3.2447,-3.2449,-3.2441,-3.2436,-3.2443,-3.2426,-3.2428,-3.2424,-3.2406,-3.2412,-3.2399,-3.2388,-3.2381,-3.2384,-3.2367,-3.2376,-3.2378,-3.2381,-3.2385,-3.2308,-3.2383,-3.2383,-3.2383,-3.2383,-3.2382,0,-3.2535,-3.2524,-3.2527,-3.2518,-3.252,-3.2495,-3.2486,-3.2489,-3.2494,-3.2485,-3.2484,-3.2486,-3.2486,-3.2466,-3.2463,-3.2469,-3.2457,-3.247,-3.2468,-3.2466,-3.2401,-3.2396,-3.248,-3.248,-3.248,-3.248,-3.248,-3.248,-3.258,-3.2597,-3.2582,-3.2594,-3.2583,-3.2588,-3.2585,-3.258,-3.2571,-3.2576,-3.2575,-3.2562,-3.2547,-3.2542,-3.2541,-3.2535,-3.2535,-3.2551,-3.2541,-3.248,-3.2471,-3.2462,-3.2457,-3.2552,-3.2552,-3.2605,-3.2606,-3.2606]}]]